P/2011 U2 ( Bressi )

Japanese version
Home page
Updated on March 18, 2012

---------------------------------------------------------------------

* Profile

Discovery Date October 24, 2011
Magnitude 19.4 mag
Discoverer Terry H. Bressi (Kitt Peak)

* Pictures

* Orbital Elements

Epoch 2012 Apr. 23.0 TT = JDT 2456040.5
T 2012 May 7.31937 TT                                   MPC
q   4.8375265            (2000.0)            P               Q
n   0.07766314     Peri.  157.71507     +0.42664228     -0.88886628
a   5.4407579      Node   266.69181     +0.80251118     +0.45721543
e   0.1108727      Incl.    9.63035     +0.41707574     +0.02950890
P  12.7
From 97 observations 2011 Oct. 24-2012 Mar. 16, mean residual 0".4.

* Magnitudes Graph

        m1 = 9.0 + 5 log d + 10.0 log r

---------------------------------------------------------------------

The orbital elements are published on M.P.E.C. 2012-F11.
The magnitudes graphs are made with Comet for Windows.

---------------------------------------------------------------------

Copyright(C) Seiichi Yoshida (comet@aerith.net). All rights reserved.